Regional Weather Roundup
Issued by NWS

Home | Current Version | Previous Version | Graphics & Text | Print | Product List | Glossary On
Versions: 1 2 3 4 5 6 7 8 9 10 11 12 13 14 15 16 17 18 19 20 21 22 23 24 25 26 27 28 29 30 31 32 33 34 35 36 37 38 39 40 41 42 43 44 45 46 47 48 49 50
000
ASUS43 KOAX 220502
RWRNE

WEATHER ROUNDUP FOR NEBRASKA
NATIONAL WEATHER SERVICE OMAHA NE
1100 PM CST TUE NOV 21 2017

NOTES: SATELLITE DATA IS BEING USED TO AUGMENT CLOUD COVER ABOVE
       12000 FEET.
       "FAIR" INDICATES FEW OR NO CLOUDS BELOW 12,000 FEET WITH NO
       SIGNIFICANT WEATHER AND/OR OBSTRUCTIONS TO VISIBILITY.


NEZ001>004-019>022-054>056-220600-
NEBRASKA PANHANDLE

CITY           SKY/WX    TMP DP  RH WIND       PRES   REMARKS
SCOTTSBLUFF    CLOUDY    31  23  72 E7        30.22F WCI  24
ALLIANCE       CLOUDY    26  24  92 SE8       30.22F WCI  18
CHADRON        CLOUDY    23  21  92 CALM      30.21F
GORDON         FAIR      21  18  86 CALM      30.22F
KIMBALL        CLOUDY    36  32  86 SW9       30.24S WCI  29
SIDNEY         CLOUDY    29  24  82 S10       30.26F WCI  20
$$

NEZ057>060-069>072-079>082-220600-
SOUTHWEST NEBRASKA

CITY           SKY/WX    TMP DP  RH WIND       PRES   REMARKS
NORTH PLATTE   CLOUDY    21  15  78 CALM      30.33F
IMPERIAL       CLOUDY    26  21  81 S7        30.33R WCI  18
LEXINGTON      CLOUDY    23  14  68 SE6       30.37S WCI  15
MCCOOK         CLOUDY    26  16  65 S5        30.37R WCI  20
OGALLALA       CLOUDY    23  19  83 CALM      30.30F
$$

NEZ005>010-023>029-035>040-094-220600-
NORTH CENTRAL NEBRASKA

CITY           SKY/WX    TMP DP  RH WIND       PRES   REMARKS
VALENTINE      CLOUDY    16  11  80 S6        30.30S WCI   7
AINSWORTH      CLOUDY    18  12  77 S6        30.31S WCI   9
BROKEN BOW     CLOUDY    17  10  74 SW3       30.35R
O`NEILL        CLOUDY    12  10  91 SW6       30.35S WCI   2
ORD            CLOUDY    12   7  80 CALM      30.36R
THEDFORD       CLOUDY    22  15  75 CALM      30.31S
$$

NEZ041-046>049-061>064-073>077-083>087-220600-
SOUTH CENTRAL NEBRASKA

CITY           SKY/WX    TMP DP  RH WIND       PRES   REMARKS
GRAND ISLAND   CLOUDY    17  12  80 CALM      30.39F
AURORA         CLOUDY    14   8  78 CALM      30.39F
HASTINGS       CLEAR     16   8  71 CALM      30.38F
HEBRON         CLOUDY    21  13  72 CALM      30.42S
HOLDREGE       CLEAR     19  11  70 CALM      30.37S
KEARNEY        CLOUDY    21  12  68 SW5       30.39R WCI  15
YORK           CLOUDY    16  12  86 N5        30.40F WCI   9
$$

NEZ011>018-030>034-042>045-220600-
NORTHEAST NEBRASKA

CITY           SKY/WX    TMP DP  RH WIND       PRES   REMARKS
NORFOLK        CLOUDY    14  10  84 W3        30.37F
ALBION         CLOUDY    12   8  82 CALM      30.37F
BLAIR          CLOUDY    19  12  74 CALM      30.39S
COLUMBUS       CLOUDY    17  11  77 W5        30.41F WCI  10
FREMONT        CLOUDY    19  12  76 W6        30.41F WCI  10
TEKAMAH        CLOUDY    14   7  73 SW3       30.42R
WAYNE          CLOUDY    12   8  83 S6        30.39F WCI   3
$$

NEZ050>053-065>068-078-088>093-220600-
SOUTHEAST NEBRASKA

CITY           SKY/WX    TMP DP  RH WIND       PRES   REMARKS
LINCOLN        CLOUDY    21  12  68 MISG      30.44R
OMAHA EPPLEY   CLOUDY    19  11  70 N10       30.41S WCI   7
BEATRICE       CLOUDY    17  12  83 CALM      30.42S
FALLS CITY     CLOUDY    22  13  68 NW8       30.41R WCI  12
NEBRASKA CITY  CLOUDY    21  13  72 NW8       30.41R WCI  12
PLATTSMOUTH    PTCLDY    22  12  67 W7        30.40R WCI  13
$$

NEZ044-045-051>053-067-220600-
OMAHA AREA

CITY           SKY/WX    TMP DP  RH WIND       PRES   REMARKS
OMAHA EPPLEY   CLOUDY    19  11  70 N10       30.41S WCI   7
BLAIR          CLOUDY    19  12  74 CALM      30.39S
FREMONT        CLOUDY    19  12  76 W6        30.41F WCI  10
MILLARD        CLOUDY    23  12  62 NW6       30.41S WCI  15
PLATTSMOUTH    PTCLDY    22  12  67 W7        30.40R WCI  13
WAHOO          FAIR      22  13  69 NW7       30.41S WCI  13
$$




USA.gov is the U.S. government's official web portal to all federal, state and local government web resources and services.